Athens, GA

4:32 PM EST on November 16, 2019 (GMT -0500)
Athens / Epps

Weather History for KAHN - October, 2019

Change the Weather History Date:

Monday, October 14, 2019

  Actual Average Record
Temperature  
Mean Temperature 68 °F 63 °F  
Max Temperature 82 °F 75 °F 91 °F (1928)
Min Temperature 54 °F 52 °F 31 °F (1988)
Degree Days  
Heating Degree Days 0 4  
Month to date heating degree days 0 34  
Since 1 July heating degree days 0 44  
Cooling Degree Days 3 2  
Month to date cooling degree days 127 42  
Year to date cooling degree days 2360 1857  
Growing Degree Days 18 (Base 50)    
Moisture  
Dew Point 50 °F    
Average Humidity 61    
Maximum Humidity 100    
Minimum Humidity 21    
Precipitation  
Precipitation 0.00 in 0.12 in 2.78 in (2014)
Month to date precipitation 0.04 1.78  
Year to date precipitation 34.66 37.01  
Snow  
Snow 0.00 in 0.00 in 0.00 in (2002)
Month to date snowfall 0.0  
Since 1 July snowfall 0.0  
Since 1 September snowfall 0.0  
Snow Depth -    
Sea Level Pressure  
Sea Level Pressure 30.07 in    
Wind  
Wind Speed 4 mph (West)    
Max Wind Speed 10 mph    
Max Gust Speed 16 mph    
Visibility 9 miles    
Events      
T = Trace of Precipitation, MM = Missing Value Source: NWS Daily Summary

Daily Weather History Graph

Daily Weather History Graph

Search for Another Location

Airport or City:

Astronomy

Oct. 14, 2019 Rise Set
Actual Time 7:37 AM EDT 7:00 PM EDT
Civil Twilight 7:12 AM EDT 7:25 PM EDT
Nautical Twilight 6:43 AM EDT 7:54 PM EDT
Astronomical Twilight 6:14 AM EDT 8:23 PM EDT
Moon 7:50 PM EDT (10/14) 8:08 AM EDT (10/14)
Length of Visible Light 12h 13m
Length of Day
11h 23m
Waxing Gibbous, 99% of the Moon is Illuminated
Oct 14
Waxing Gibbous
Oct 21
Last Quarter
Oct 27
New
Nov 4
First Quarter
Nov 12
Full

Hourly Weather History & Observations

Time (EDT) Temp. Dew Point Humidity Pressure Visibility Wind Dir Wind Speed Gust Speed Precip Events Conditions
12:51 AM 62.1 °F 60.1 °F 93% 30.05 in 10.0 mi West 3.5 mph - 0.01 in   Clear
2:51 AM 60.1 °F 57.9 °F 93% 30.04 in 10.0 mi Calm Calm - N/A   Clear
3:05 AM 59.0 °F 57.0 °F 93% 30.04 in 8.0 mi Calm Calm - N/A   Partly Cloudy
3:24 AM 57.9 °F 57.0 °F 97% 30.03 in 4.0 mi Calm Calm - N/A   Scattered Clouds
3:51 AM 57.9 °F 57.0 °F 97% 30.03 in 8.0 mi WSW 4.6 mph - N/A   Clear
4:44 AM 57.9 °F 57.0 °F 97% 30.04 in 6.0 mi WSW 3.5 mph - N/A   Partly Cloudy
4:51 AM 57.9 °F 55.9 °F 93% 30.04 in 9.0 mi WSW 3.5 mph - N/A   Partly Cloudy
5:51 AM 57.0 °F 55.0 °F 93% 30.06 in 10.0 mi Calm Calm - N/A   Clear
6:51 AM 55.0 °F 52.0 °F 89% 30.07 in 10.0 mi WSW 4.6 mph - N/A   Clear
7:51 AM 54.0 °F 52.0 °F 93% 30.08 in 10.0 mi WSW 3.5 mph - N/A   Clear
8:51 AM 55.9 °F 52.0 °F 87% 30.10 in 10.0 mi West 3.5 mph - N/A   Clear
9:51 AM 61.0 °F 53.1 °F 75% 30.12 in 10.0 mi NNW 3.5 mph - N/A   Clear
10:51 AM 66.0 °F 51.1 °F 59% 30.12 in 10.0 mi Variable 3.5 mph - N/A   Clear
11:51 AM 71.1 °F 46.9 °F 42% 30.12 in 10.0 mi Variable 3.5 mph - N/A   Clear
12:51 PM 75.9 °F 42.1 °F 30% 30.09 in 10.0 mi Variable 3.5 mph - N/A   Clear
1:51 PM 80.1 °F 39.9 °F 24% 30.08 in 10.0 mi Variable 5.8 mph - N/A   Clear
2:51 PM 81.0 °F 37.0 °F 21% 30.06 in 10.0 mi NW 9.2 mph - N/A   Clear
3:51 PM 80.1 °F 37.9 °F 22% 30.06 in 10.0 mi Variable 4.6 mph - N/A   Clear
4:51 PM 81.0 °F 39.0 °F 22% 30.06 in 10.0 mi WNW 6.9 mph - N/A   Clear
6:51 PM 69.1 °F 44.1 °F 40% 30.06 in 10.0 mi Calm Calm - N/A   Clear
7:51 PM 64.0 °F 48.0 °F 56% 30.08 in 10.0 mi Calm Calm - N/A   Clear
8:51 PM 62.1 °F 46.9 °F 58% 30.09 in 10.0 mi Calm Calm - N/A   Clear
9:51 PM 61.0 °F 48.0 °F 62% 30.11 in 10.0 mi Calm Calm - N/A   Clear
11:51 PM 59.0 °F 51.1 °F 75% 30.11 in 10.0 mi Calm Calm - N/A   Clear